Weather History for KLOM - February, 2013

Change the Weather History Date:

Tuesday, February 26, 2013

  Actual Average (KPHL) Record (KPHL)
Temperature  
Mean Temperature 35 °F 38 °F  
Max Temperature 44 °F 47 °F 69 °F (1890)
Min Temperature 26 °F 30 °F 10 °F (1990)
Degree Days  
Heating Degree Days 30 27  
Month to date heating degree days 766  
Since 1 July heating degree days 3429  
Cooling Degree Days 0 0  
Month to date cooling degree days 0  
Year to date cooling degree days 0  
Moisture  
Dew Point 31 °F    
Average Humidity 83    
Maximum Humidity 100    
Minimum Humidity 57    
Precipitation  
Precipitation 0.14 in 0.10 in 2.16 in (1912)
Month to date precipitation 2.46  
Year to date precipitation 5.49  
Snow  
Snow 0.00 in 0.20 in 5.10 in (1934)
Month to date snowfall 8.4  
Since 1 July snowfall 18.6  
Snow Depth -    
Sea Level Pressure  
Sea Level Pressure 30.11 in    
Wind  
Wind Speed 6 mph (East)    
Max Wind Speed 24 mph    
Max Gust Speed 33 mph    
Visibility 9 miles    
Events      
T = Trace of Precipitation, MM = Missing Value Source: NWS Daily Summary

Daily Weather History Graph

Daily Weather History Graph

Search for Another Location

Airport or City:

Trip Planner

Search our weather history database for the weather conditions in past years. The results will help you decide how hot, cold, wet, or windy it might be!

Date:

Astronomy

Feb. 26, 2013 Rise Set
Actual Time 6:38 AM EST 5:49 PM EST
Civil Twilight 6:11 AM EST 6:17 PM EST
Nautical Twilight 5:39 AM EST 6:48 PM EST
Astronomical Twilight 5:08 AM EST 7:19 PM EST
Moon 7:04 PM EST (2/26) 6:39 AM EST (2/26)
Length of Visible Light 12h 05m
Length of Day
11h 11m
Full, 99% of the Moon is Illuminated
Feb 26
Full
Mar 4
Last Quarter
Mar 11
New
Mar 19
First Quarter
Mar 27
Full

Hourly Weather History & Observations

Time (EST) Temp. Windchill Dew Point Humidity Pressure Visibility Wind Dir Wind Speed Gust Speed Precip Events Conditions
12:15 AM 30.2 °F - 28.4 °F 93% 30.19 in 10.0 mi Calm Calm - N/A   Clear
12:35 AM 30.2 °F - 28.4 °F 93% 30.22 in 10.0 mi Calm Calm - N/A   Clear
12:55 AM 30.2 °F - 28.4 °F 93% 30.23 in 10.0 mi Calm Calm - N/A   Clear
1:15 AM 30.2 °F - 28.4 °F 93% 30.24 in 10.0 mi Calm Calm - N/A   Clear
1:35 AM 30.2 °F - 26.6 °F 86% 30.23 in 10.0 mi Calm Calm - N/A   Clear
1:55 AM 28.4 °F - 26.6 °F 93% 30.24 in 10.0 mi Calm Calm - N/A   Clear
2:15 AM 28.4 °F - 26.6 °F 93% 30.23 in 10.0 mi Calm Calm - N/A   Clear
2:35 AM 28.4 °F - 26.6 °F 93% 30.23 in 10.0 mi Calm Calm - N/A   Clear
2:55 AM 26.6 °F - 26.6 °F 100% 30.23 in 10.0 mi Calm Calm - N/A   Clear
3:15 AM 26.6 °F - 26.6 °F 100% 30.23 in 10.0 mi Calm Calm - N/A   Clear
3:35 AM 28.4 °F - 26.6 °F 93% 30.23 in 10.0 mi Calm Calm - N/A   Clear
3:55 AM 26.6 °F - 26.6 °F 100% 30.23 in 7.0 mi Calm Calm - N/A   Clear
4:15 AM 26.6 °F - 24.8 °F 93% 30.21 in 10.0 mi Calm Calm - N/A   Clear
4:35 AM 26.6 °F - 26.6 °F 100% 30.22 in 10.0 mi Calm Calm - N/A   Clear
4:55 AM 26.6 °F - 26.6 °F 100% 30.21 in 10.0 mi Calm Calm - N/A   Clear
5:15 AM 26.6 °F - 26.6 °F 100% 30.21 in 7.0 mi Calm Calm - N/A   Clear
5:35 AM 26.6 °F - 26.6 °F 100% 30.21 in 10.0 mi Calm Calm - N/A   Clear
5:55 AM 26.6 °F - 26.6 °F 100% 30.20 in 7.0 mi Calm Calm - N/A   Clear
6:15 AM 26.6 °F - 24.8 °F 93% 30.20 in 10.0 mi Calm Calm - N/A   Clear
6:35 AM 26.6 °F - 26.6 °F 100% 30.21 in 7.0 mi Calm Calm - N/A   Clear
6:55 AM 28.4 °F - 26.6 °F 93% 30.23 in 10.0 mi Calm Calm - N/A   Clear
7:15 AM 28.4 °F - 26.6 °F 93% 30.23 in 7.0 mi Calm Calm - N/A   Clear
7:35 AM 28.4 °F 24.6 °F 26.6 °F 93% 30.23 in 7.0 mi NE 3.5 mph - N/A   Clear
7:55 AM 30.2 °F - 28.4 °F 93% 30.24 in 10.0 mi Calm Calm - N/A   Clear
8:15 AM 32.0 °F 28.7 °F 30.2 °F 93% 30.23 in 10.0 mi ENE 3.5 mph - N/A   Clear
8:35 AM 32.0 °F - 30.2 °F 93% 30.24 in 10.0 mi Calm Calm - N/A   Clear
8:55 AM 33.8 °F 29.6 °F 32.0 °F 93% 30.23 in 10.0 mi ENE 4.6 mph - N/A   Clear
9:15 AM 35.6 °F 31.7 °F 32.0 °F 87% 30.23 in 10.0 mi ENE 4.6 mph - N/A   Clear
9:35 AM 37.4 °F 34.9 °F 32.0 °F 81% 30.24 in 10.0 mi NE 3.5 mph - N/A   Clear
9:55 AM 37.4 °F 33.8 °F 32.0 °F 81% 30.23 in 10.0 mi East 4.6 mph - N/A   Clear
10:15 AM 41.0 °F 37.1 °F 32.0 °F 70% 30.23 in 10.0 mi East 5.8 mph - N/A   Clear
10:35 AM 42.8 °F 36.6 °F 32.0 °F 66% 30.23 in 10.0 mi ESE 11.5 mph - N/A   Clear
10:55 AM 42.8 °F 37.0 °F 32.0 °F 66% 30.22 in 10.0 mi East 10.4 mph 17.3 mph N/A   Clear
11:15 AM 44.6 °F 39.2 °F 30.2 °F 57% 30.21 in 10.0 mi East 10.4 mph - N/A   Scattered Clouds
11:35 AM 44.6 °F 38.4 °F 30.2 °F 57% 30.21 in 10.0 mi East 12.7 mph 19.6 mph N/A   Mostly Cloudy
11:55 AM 44.6 °F 38.4 °F 32.0 °F 61% 30.20 in 10.0 mi East 12.7 mph 17.3 mph N/A   Mostly Cloudy
12:15 PM 44.6 °F 39.2 °F 32.0 °F 61% 30.20 in 10.0 mi East 10.4 mph 17.3 mph N/A   Mostly Cloudy
12:35 PM 44.6 °F 38.4 °F 32.0 °F 61% 30.18 in 10.0 mi ESE 12.7 mph 19.6 mph N/A   Overcast
12:55 PM 44.6 °F 38.8 °F 32.0 °F 61% 30.16 in 10.0 mi ESE 11.5 mph 17.3 mph N/A   Mostly Cloudy
1:15 PM 44.6 °F 38.1 °F 32.0 °F 61% 30.16 in 10.0 mi SE 13.8 mph 18.4 mph N/A   Mostly Cloudy
1:35 PM 44.6 °F 38.8 °F 32.0 °F 61% 30.16 in 10.0 mi ESE 11.5 mph 18.4 mph N/A   Overcast
1:55 PM 44.6 °F 38.1 °F 32.0 °F 61% 30.15 in 10.0 mi East 13.8 mph 19.6 mph N/A   Overcast
2:15 PM 44.6 °F 38.4 °F 32.0 °F 61% 30.13 in 10.0 mi East 12.7 mph 19.6 mph N/A   Overcast
2:35 PM 44.6 °F 38.1 °F 32.0 °F 61% 30.12 in 10.0 mi ESE 13.8 mph 21.9 mph N/A   Overcast
2:55 PM 44.6 °F 38.1 °F 32.0 °F 61% 30.11 in 10.0 mi East 13.8 mph 23.0 mph N/A   Overcast
3:15 PM 42.8 °F 35.1 °F 32.0 °F 66% 30.11 in 10.0 mi East 16.1 mph 24.2 mph N/A   Overcast
3:35 PM 42.8 °F 37.0 °F 32.0 °F 66% 30.10 in 10.0 mi East 10.4 mph 20.7 mph N/A   Overcast
3:55 PM 42.8 °F 37.5 °F 32.0 °F 66% 30.08 in 10.0 mi East 9.2 mph 20.7 mph N/A   Scattered Clouds
4:15 PM 42.8 °F 35.8 °F 32.0 °F 66% 30.08 in 10.0 mi East 13.8 mph 19.6 mph N/A   Clear
4:35 PM 42.8 °F 34.5 °F 32.0 °F 66% 30.07 in 10.0 mi East 18.4 mph 21.9 mph N/A   Mostly Cloudy
4:55 PM 42.8 °F 35.1 °F 32.0 °F 66% 30.05 in 10.0 mi East 16.1 mph 23.0 mph N/A   Overcast
5:15 PM 41.0 °F 32.5 °F 32.0 °F 70% 30.04 in 10.0 mi East 17.3 mph 25.3 mph N/A   Overcast
5:35 PM 41.0 °F 33.9 °F 32.0 °F 70% 30.04 in 10.0 mi East 12.7 mph 24.2 mph N/A   Overcast
5:55 PM 41.0 °F 34.3 °F 33.8 °F 76% 30.03 in 10.0 mi East 11.5 mph 25.3 mph N/A   Overcast
6:15 PM 41.0 °F 32.5 °F 33.8 °F 76% 30.01 in 10.0 mi East 17.3 mph 25.3 mph N/A   Overcast
6:35 PM 41.0 °F 33.1 °F 33.8 °F 76% 29.99 in 10.0 mi East 15.0 mph 27.6 mph N/A   Overcast
6:55 PM 41.0 °F 32.2 °F 33.8 °F 76% 29.99 in 10.0 mi East 18.4 mph 24.2 mph N/A   Overcast
7:15 PM 41.0 °F 32.2 °F 33.8 °F 76% 29.98 in 10.0 mi East 18.4 mph 31.1 mph N/A   Overcast
7:35 PM 39.2 °F 29.8 °F 33.8 °F 81% 29.95 in 7.0 mi East 18.4 mph 29.9 mph N/A   Overcast
7:55 PM 37.4 °F 26.1 °F 35.6 °F 93% 29.93 in 7.0 mi East 24.2 mph 33.4 mph N/A   Overcast
8:15 PM 37.4 °F 27.2 °F 35.6 °F 93% 29.90 in 7.0 mi ENE 19.6 mph 29.9 mph N/A   Overcast
8:35 PM 37.4 °F 26.9 °F 35.6 °F 93% 29.90 in 10.0 mi ENE 20.7 mph 26.5 mph N/A   Overcast
8:55 PM 37.4 °F 27.8 °F 35.6 °F 93% 29.92 in 7.0 mi East 17.3 mph 26.5 mph N/A   Overcast
9:15 PM 37.4 °F 27.5 °F 35.6 °F 93% 29.89 in 3.0 mi East 18.4 mph 26.5 mph 0.03 in   Overcast
9:35 PM 37.4 °F 26.4 °F 35.6 °F 93% 29.87 in 5.0 mi ENE 23.0 mph 29.9 mph 0.03 in   Overcast
9:55 PM 37.4 °F 26.6 °F 35.6 °F 93% 29.84 in 5.0 mi ENE 21.9 mph 28.8 mph 0.04 in   Overcast
10:15 PM 37.4 °F 27.8 °F 35.6 °F 93% 29.81 in 5.0 mi ENE 17.3 mph 32.2 mph N/A   Overcast
10:35 PM 37.4 °F 27.5 °F 35.6 °F 93% 29.81 in 5.0 mi ENE 18.4 mph 25.3 mph 0.01 in   Overcast
10:55 PM 37.4 °F 26.6 °F 35.6 °F 93% 29.80 in 3.0 mi East 21.9 mph 31.1 mph 0.04 in   Overcast
11:15 PM 37.4 °F 26.9 °F 35.6 °F 93% 29.79 in 3.0 mi ENE 20.7 mph 28.8 mph 0.03 in   Overcast
11:35 PM 37.4 °F 27.5 °F 35.6 °F 93% 29.78 in 4.0 mi ENE 18.4 mph 27.6 mph 0.05 in   Overcast
11:55 PM 37.4 °F 27.5 °F 35.6 °F 93% 29.78 in 3.0 mi ENE 18.4 mph 25.3 mph 0.06 in   Overcast